Location: Oberkirch
(48.5323°N, 8.0787°E)
Time: 05:41:28
(UTC+00:00)

USA 238 DEB - Pass Details

Date: 08 November 2025
Orbit: 886 x 1325 km, 63.4° (Epoch: 24 November)

Event Time Altitude Azimuth Distance (km) Brightness Sun altitude
Exits shadow 03:33:05 38° 339° (NNW) 1,518 4.3 -28.6°
Drops below altitude 10° 03:39:06 10° 37° (NE) 2,972 6.5 -27.6°
Sets 03:42:10 0° 46° (NE) 4,006 7.4 -27.1°
